Regional Weather Roundup
Issued by NWS

Home | Current Version | Previous Version | Graphics & Text | Print | Product List | Glossary Off
Versions: 1 2 3 4 5 6 7 8 9 10 11 12 13 14 15 16 17 18 19 20 21 22 23 24 25 26 27 28 29 30 31 32 33 34 35 36 37 38 39 40 41 42 43 44 45 46 47 48 49 50

000
ASUS45 KSLC 120310
RWRUT

UTAH REGIONAL WEATHER ROUNDUP
NATIONAL WEATHER SERVICE SALT LAKE CITY UT
800 PM MST MON DEC 11 2017

UTZ001>011-023>025-120400-

NORTHERN UTAH

CITY           SKY/WX    TMP DP  RH WIND       PRES   REMARKS
BRIGHAM CITY   PTCLDY    24  21  89 CALM      30.60R
HILL AFB       FOG       25  24  96 CALM      30.56R VSB 1/4
LOGAN          PTCLDY    20  16  84 NW3       30.59R
OGDEN          CLOUDY    26  24  92 SW3       30.57S FOG
SALT LAKE CITY SNOW      27  25  92 CALM      30.59R VSB 1/4
TOOELE VALLEY  FOG       25  25 100 CALM      30.60R VSB 1/4
WENDOVER       PTCLDY    20  12  71 CALM      30.59S
HEBER CITY       N/A     19  12  73 E3        30.52R
WEST JORDAN    CLOUDY    22  22 100 CALM      30.58S VSB 1/4

$$

UTZ011>015-024>027-120400-

CENTRAL/NORTHEAST UTAH

CITY           SKY/WX    TMP DP  RH WIND       PRES   REMARKS
PROVO AIRPORT  PTCLDY    23  19  85 N3        30.57R
MOAB/CANYONLAN MOCLDY    28   1  31 CALM      30.47R
DELTA          MOCLDY    25  14  63 CALM      30.55S
PRICE          CLEAR     27  -2  28 N5        30.47S WCI  22
RICHFIELD      CLEAR     21   1  42 CALM      30.55R
ROOSEVELT      CLOUDY    23   9  54 CALM      30.54S
VERNAL         CLOUDY    24   8  50 NW3       30.52R

$$

UTZ013>016-019>022-027-120400-

SOUTHERN UTAH

CITY           SKY/WX    TMP DP  RH WIND       PRES   REMARKS
BRYCE CANYON   CLEAR     21 -14  20 W8        30.53R WCI  11
CEDAR CITY     PTCLDY    28   5  37 SE6       30.50R WCI  22
MILFORD        PTCLDY    23  11  60 NE6       30.53R WCI  16
ST GEORGE      CLEAR     42   3  19 CALM      30.41R
HANKSVILLE     MOCLDY    32   3  29 CALM      30.51R
KANAB          CLEAR     39 -11  11 N8        30.47R WCI  34
BLANDING         N/A     39  -1  18 CALM      30.49S

$$

REGIONAL REPORTS     COLORADO/ARIZONA

CITY           SKY/WX    TMP DP  RH WIND       PRES   REMARKS
CRAIG, CO      CLOUDY    17  11  77 CALM      30.52S
GRAND JUNCTION CLOUDY    29   1  30 E5        30.47R WCI  24
RIFLE, CO      CLOUDY    28   4  35 E5        30.49R WCI  23
MONTROSE, CO   CLOUDY    24   0  35 S6        30.50S WCI  17
CORTEZ, CO     CLOUDY    21  -1  38 E10       30.43S WCI  10
COLORADO CITY    N/A     25  -8  24 S5        30.45S WCI  19
PAGE, AZ       CLEAR     36  14  40 CALM      30.45R
GRAND CANYON   PTCLDY    22 -18  16 NE8       30.46S WCI  12
KINGMAN, AZ    PTCLDY    39  -2  17 E9        30.34S WCI  33
FLAGSTAFF, AZ  PTCLDY    24  -9  23 CALM      30.44F

$$

REGIONAL REPORTS    NEVADA/IDAHO/WYOMING

CITY           SKY/WX    TMP DP  RH WIND       PRES   REMARKS
LAS VEGAS, NV  CLEAR     53   1  12 S5        30.33R
ELY, NY        PTCLDY    19  -5  34 S10       30.54R WCI   7
ELKO, NV       PTCLDY    23  18  81 E3        30.53R
POCATELLO, ID  CLOUDY    18  13  80 CALM      30.57R
BURLEY, ID     CLEAR     23  20  88 W6        30.56R WCI  16
FORT BRIDGER,    N/A     40   5  23 W12       30.54S WCI  34
EVANSTON, WY   CLOUDY    36   9  32 N7        30.54R WCI  30
ROCK SPRINGS,  CLOUDY    30  10  43 NE6       30.49R WCI  24

$$



USA.gov is the U.S. government's official web portal to all federal, state and local government web resources and services.